Regional Weather Roundup
Issued by NWS

Home | Current Version | Previous Version | Graphics & Text | Print | Product List | Glossary On
Versions: 1 2 3 4 5 6 7 8 9 10 11 12 13 14 15 16 17 18 19 20 21 22 23 24 25 26 27 28 29 30 31 32 33 34 35 36 37 38 39 40 41 42 43 44 45 46 47 48 49 50
015
ASUS45 KPSR 102210
RWRAZ

ARIZONA HOURLY REGIONAL WEATHER ROUNDUP
NATIONAL WEATHER SERVICE PHOENIX AZ
300 PM MST SAT DEC 10 2016

NOTE: FAIR INDICATES FEW OR NO CLOUDS BELOW 12,000 FEET WITH NO
SIGNIFICANT WEATHER AND/OR OBSTRUCTIONS TO VISIBILITY.

AZZ001>003-036-102300-
NORTHWEST ARIZONA

CITY           SKY/WX    TMP DP  RH WIND       PRES   REMARKS
BULLHEAD CITY  SUNNY     66  30  26 S6        30.03F
KINGMAN        SUNNY     62  36  37 SW18G24   30.07S
$$

AZZ004>008-015-016-018-102300-
NORTH CENTRAL ARIZONA

CITY           SKY/WX    TMP DP  RH WIND       PRES   REMARKS
GRAND CANYON   MOSUNNY   53  35  50 W12G18    30.11S
WILLIAMS       SUNNY     52  34  50 SW14      30.14R
PRESCOTT       SUNNY     60  35  39 SW13G23   30.10F
FLAGSTAFF      SUNNY     49  30  48 SW14G25   30.14S
PAYSON         SUNNY     57  32  38 S6        30.17F
PAGE           MOSUNNY   48  23  37 N7        30.05S
$$

AZZ009>014-017-102300-
NORTHEAST ARIZONA

CITY           SKY/WX    TMP DP  RH WIND       PRES   REMARKS
WINSLOW        SUNNY     67  27  22 NW12      30.04S
SAINT JOHNS    SUNNY     66  10  11 W21G29    30.05F
WINDOW ROCK    SUNNY     58  18  21 SW15      30.09F
SHOW LOW       SUNNY     55  19  24 S20G25    30.13F
$$

AZZ023-102300-
GREATER PHOENIX AREA

CITY           SKY/WX    TMP DP  RH WIND       PRES   REMARKS
PHOENIX        PTSUNNY   71  37  28 S3        30.03F
BUCKEYE        PTSUNNY   66  37  34 S3        30.06F
LUKE AFB       MOSUNNY   69  38  31 CALM      30.04F
DEER VALLEY    MOSUNNY   68  37  32 SW7       30.04F
SCOTTSDALE     SUNNY     69  36  29 CALM      30.05F
MESA-FALCON    MOSUNNY  N/A N/A N/A S12       30.02F
MESA-GATEWAY   SUNNY     68  37  32 CALM      30.05F
CHANDLER       SUNNY     68  37  32 W6        30.05F
$$

AZZ027-028-102300-
SOUTHWEST MARICOPA COUNTY AND PINAL COUNTY

CITY           SKY/WX    TMP DP  RH WIND       PRES   REMARKS
CASA GRANDE    NOT AVBL
GILA BEND      FAIR      71  38  29 W5        30.03F
$$

AZZ503-504-507>509-102300-
SOUTHEAST ARIZONA

CITY           SKY/WX    TMP DP  RH WIND       PRES   REMARKS
TUCSON         SUNNY     75  32  20 N3        30.06F
DAVIS-MONTHAN  SUNNY     73  33  22 N5        30.05F
RYAN FIELD     SUNNY     73  34  23 N5        30.07F
NOGALES        SUNNY     75  20  12 SW12G18   30.10F
SIERRA VISTA   SUNNY     72  18  13 W13       30.13F
DOUGLAS        SUNNY     71  28  20 SE6       30.10F
SAFFORD        SUNNY     63  34  33 VRB3      30.09F
$$

AZZ020-021-025-026-031-102300-
SOUTHWEST ARIZONA

CITY           SKY/WX    TMP DP  RH WIND       PRES   REMARKS
YUMA           SUNNY     75  36  24 CALM      30.02F
$$

CAZ031-033-041-043-047-048-061-102300-
SOUTHERN CALIFORNIA

CITY           SKY/WX    TMP DP  RH WIND       PRES   REMARKS
DOWNTOWN L.A.  MOSUNNY   65  54  67 CALM      30.10F HAZE
L.A. AIRPORT   PTSUNNY   63  55  75 W10       30.12F HAZE
SAN DIEGO      PTSUNNY   66  54  65 W10       30.12F
BURBANK        SUNNY     65  50  58 S7        30.10F HAZE
ONTARIO        PTSUNNY   63  52  67 VRB3      30.10F
RIVERSIDE      SUNNY     65  52  62 VRB3      30.10F
PALM SPRINGS   SUNNY     73  43  33 E9        30.01F
EL CENTRO NAS  PTSUNNY   73  35  25 SE3       30.02F
IMPERIAL       SUNNY     74  38  27 CALM      30.00F
BLYTHE         SUNNY     69  33  26 SE7       30.02F
NEEDLES        SUNNY     66  27  23 VRB3      30.03F
$$

NVZ020-UTZ003-102300-
SOUTHERN NEVADA-UTAH

CITY           SKY/WX    TMP DP  RH WIND       PRES   REMARKS
LAS VEGAS      MOSUNNY   57  20  23 CALM      30.02F
SALT LAKE CITY LGT RAIN  49  37  63 S13G20    29.84F
$$

NMZ009-TXZ055-102300-
NEW MEXICO-WEST TEXAS

CITY           SKY/WX    TMP DP  RH WIND       PRES   REMARKS
ALBUQUERQUE    MOSUNNY   50  29  44 S6        30.08F
EL PASO        MOSUNNY   57  36  45 SW8       30.11F
$$


........................KEY........................
SKY/WX - SKY CONDITION/WEATHER
TMP    - TEMPERATURE IN FAHRENHEIT
DP     - DEW POINT IN FAHRENHEIT
RH     - RELATIVE HUMIDITY IN PERCENT
WIND   - DIRECTION AND SPEED IN MILES PER HOUR (MPH)
VRB    - VARIABLE WIND DIRECTION
PRES   - MEAN SEA LEVEL PRESSURE IN INCHES OF MERCURY
         F - FALLING PRESSURE   R - RISING PRESSURE
         S - STEADY PRESSURE
VSB    - VISIBILITY IN MILES
HX     - HEAT INDEX IN FAHRENHEIT
WCI    - WIND CHILL INDEX IN FAHRENHEIT
TC     - TEMPERATURE IN CELSIUS WHICH IS ALSO KNOWN AS
         TEMPERATURE IN CENTIGRADE
AFB    - AIR FORCE BASE
         LUKE AFB IS LUKE AIR FORCE BASE
         DAVIS-MONTHAN IS DAVIS-MONTHAN AIR FORCE BASE
NAS    - NAVAL AIR STATION
         EL CENTRO NAS IS EL CENTRO NAVAL AIR STATION
N/A    - NOT AVAILABLE





USA.gov is the U.S. government's official web portal to all federal, state and local government web resources and services.